Location: Alston School (historical)
(35.5076°N, 89.8251°W)
Time: 00:40:17
(UTC+00:00)

Cosmos 1825 Rocket - Pass Details

Date: 09 December 2025
Orbit: 597 x 624 km, 82.5° (Epoch: 24 January)

Event Time Altitude Azimuth Distance (km) Brightness Sun altitude
Rises 23:21:52 0° 6° (N) 2,874 6.7 -7.3°
Reaches altitude 10° 23:24:22 10° 18° (NNE) 1,960 5.8 -7.8°
Maximum altitude 23:28:05 28° 77° (ENE) 1,152 4.4 -8.5°
Drops below altitude 10° 23:31:46 10° 137° (SE) 1,936 5.9 -9.2°
Sets 23:34:12 0° 149° (SSE) 2,830 6.8 -9.7°
